Aérodrome :
LOGIN :

S'inscrire | Disclaimer

   EN    FR    IT 

 










Légende :    VFR   VFR Marginal   IFR   IFR Intensif   IFR Très Intensif
Visi : 
Plafond : 
>= 8 km
>= 3000ft
5 à 8 km
1000 à 3000 ft
1500m à 5 km
500 à 1000 ft
800 à 1500m
200 à 500 ft
< 800m
< 200 ft
Symboles :   Orages  Brouillard  Fortes neiges  Fortes précipitations  Vent > 20 kt
SIGMETs :   Divers  Orages  Givrage  Turbulence  Onde Orograph.  Cendres Volcan.







- Altitude de l'aérodrome : 102 ft
- Code IATA : KEL


EDHK - Holtenau

METARs EXPIRÉS :
  • 241420Z 26018G29KT 230V300 9999 BKN015 18/14 Q1008
  • 241350Z 26019KT 9999 BKN011 BKN020 18/15 Q1008
  • 241320Z 25015KT 9999 BKN015 OVC020 18/15 Q1007
  • 241250Z 25016KT 9999 BKN013 OVC015 18/15 Q1007
  • 241220Z 24013KT 210V270 9999 BKN011 OVC025 18/16 Q1007
  • 241150Z 24012KT 200V270 9999 BKN010 OVC012 17/16 Q1008

Prévision TAF périmée.
Pas de NOTAMs connus pour ce terrain.



MET'MAP, la Météo Aéronautique d'un coup d'oeil ! - Copyright ORBIFLY Décembre 2007 - Disclaimer

ORBIFLY MET'MAP TEAM :

Programmation & Développement : Alexandra Zaïnal
Conception & Développement : Baudouin d'Aumeries
Co-Programmation & Développement : Marc-Olivier Méhu
Soutien technique & logistique : Manuel Goepfert

Contact : metmap@orbifly.com




SOURCES & CREDITS :

   NOAA